Weather History for Gulfport, MS

Change the Weather History Date:

Sunday, July 29, 2012

  Actual Average Record
Temperature  
Mean Temperature 84 °F -  
Max Temperature 93 °F 92 °F 101 °F (1986)
Min Temperature 78 °F 74 °F 64 °F (1953)
Cooling Degree Days 20    
Growing Degree Days 34 (Base 50)    
Moisture  
Dew Point 76 °F    
Average Humidity 73    
Maximum Humidity 90    
Minimum Humidity 57    
Precipitation  
Precipitation 0.00 in - - ()
Sea Level Pressure  
Sea Level Pressure 30.00 in    
Wind  
Wind Speed 3 mph (SW)    
Max Wind Speed 9 mph    
Max Gust Speed 16 mph    
Visibility 9 miles    
Events      
Averages and records for this station are not official NWS values.
T = Trace of Precipitation, MM = Missing Value Source: NWS Daily Summary

Daily Weather History Graph

Daily Weather History Graph

Search for Another Location

Airport:

Trip Planner

Search our weather history database for the weather conditions in past years. The results will help you decide how hot, cold, wet, or windy it might be!

Date:

Astronomy

Jul. 29, 2012 Rise Set
Actual Time 6:13 AM CDT 7:52 PM CDT
Civil Twilight 5:46 AM CDT 8:18 PM CDT
Nautical Twilight 5:15 AM CDT 8:49 PM CDT
Astronomical Twilight 4:42 AM CDT 9:22 PM CDT
Moon 4:54 PM CDT (7/29) 2:31 AM CDT (7/29)
Length of Visible Light 14h 31m
Length of Day
13h 39m
Waxing Gibbous, 85% of the Moon is Illuminated
Jul 29
Waxing Gibbous
Aug 1
Full
Aug 9
Last Quarter
Aug 17
New
Aug 24
First Quarter

Hourly Weather History & Observations

Time (CDT) Temp. Heat Index Dew Point Humidity Pressure Visibility Wind Dir Wind Speed Gust Speed Precip Events Conditions
12:53 AM 80.1 °F 85.1 °F 75.0 °F 85% 30.03 in 8.0 mi Calm Calm - N/A   Clear
1:53 AM 79.0 °F - 75.0 °F 88% 30.01 in 8.0 mi Calm Calm - N/A   Clear
2:53 AM 79.0 °F - 75.0 °F 88% 30.00 in 8.0 mi WNW 3.5 mph - N/A   Clear
3:53 AM 78.1 °F - 75.0 °F 90% 30.00 in 9.0 mi Calm Calm - N/A   Clear
4:53 AM 78.1 °F - 73.9 °F 87% 30.01 in 9.0 mi Calm Calm - N/A   Clear
5:53 AM 78.1 °F - 73.9 °F 87% 30.02 in 8.0 mi Calm Calm - N/A   Clear
6:53 AM 78.1 °F - 73.9 °F 87% 30.04 in 6.0 mi Calm Calm - N/A   Clear
7:53 AM 81.0 °F 86.7 °F 75.0 °F 82% 30.05 in 9.0 mi WNW 6.9 mph - N/A   Clear
8:53 AM 84.0 °F 91.9 °F 75.0 °F 74% 30.05 in 10.0 mi West 6.9 mph - N/A   Clear
9:53 AM 88.0 °F 98.5 °F 75.9 °F 67% 30.06 in 10.0 mi West 3.5 mph - N/A   Clear
10:53 AM 89.6 °F 99.8 °F 75.2 °F 62% 30.05 in 10.0 mi West 5.8 mph - N/A   Scattered Clouds
11:53 AM 90.0 °F 101.3 °F 75.9 °F 63% 30.04 in 10.0 mi West 3.5 mph - N/A   Mostly Cloudy
12:53 PM 91.0 °F 106.2 °F 78.1 °F 66% 30.02 in 10.0 mi South 4.6 mph - N/A   Mostly Cloudy
1:53 PM 91.0 °F 106.2 °F 78.1 °F 66% 30.01 in 10.0 mi SSW 8.1 mph - N/A   Scattered Clouds
2:53 PM 91.9 °F 105.9 °F 77.0 °F 62% 29.99 in 10.0 mi South 9.2 mph 16.1 mph N/A   Partly Cloudy
3:53 PM 91.9 °F 103.9 °F 75.9 °F 59% 29.97 in 10.0 mi SSW 6.9 mph - N/A   Partly Cloudy
4:53 PM 91.9 °F 103.2 °F 75.0 °F 58% 29.96 in 10.0 mi South 9.2 mph - N/A   Clear
5:53 PM 91.0 °F 101.6 °F 75.0 °F 59% 29.96 in 10.0 mi Variable 5.8 mph - N/A   Clear
6:53 PM 90.0 °F 97.9 °F 73.0 °F 57% 29.96 in 10.0 mi SSW 6.9 mph - N/A   Clear
7:53 PM 88.0 °F 96.5 °F 73.9 °F 63% 29.96 in 10.0 mi South 3.5 mph - N/A   Clear
8:10 PM 87.8 °F 95.6 °F 73.4 °F 62% 29.96 in 10.0 mi South 4.6 mph - N/A   Partly Cloudy
8:53 PM 87.1 °F 98.8 °F 77.0 °F 72% 29.99 in 10.0 mi Calm Calm - N/A   Clear
9:53 PM 87.1 °F 99.8 °F 78.1 °F 74% 29.99 in 10.0 mi SSW 4.6 mph - N/A   Clear
10:53 PM 86.0 °F 99.3 °F 79.0 °F 79% 30.00 in 10.0 mi SW 4.6 mph - N/A   Clear
11:53 PM 84.9 °F 96.6 °F 78.1 °F 80% 29.99 in 10.0 mi WSW 4.6 mph - N/A   Clear